Regional Weather Roundup
Issued by NWS

Home | Current Version | Previous Version | Graphics & Text | Print | Product List | Glossary On
Versions: 1 2 3 4 5 6 7 8 9 10 11 12 13 14 15 16 17 18 19 20 21 22 23 24 25 26 27 28 29 30 31 32 33 34 35 36 37 38 39 40 41 42 43 44 45 46 47 48 49 50
000
ASUS43 KBIS 040501
RWRND

NORTH DAKOTA REGIONAL WEATHER ROUNDUP
NATIONAL WEATHER SERVICE BISMARCK ND
1200 AM CDT MON MAY 04 2015

NOTE: "FAIR" INDICATES FEW OR NO CLOUDS BELOW 12,000 FEET WITH NO
SIGNIFICANT WEATHER AND/OR OBSTRUCTIONS TO VISIBILITY.


NDZ001>003-009>011-017-040600-
NORTHWEST NORTH DAKOTA

CITY           SKY/WX    TMP DP  RH WIND       PRES   REMARKS
WILLISTON      PTCLDY    43  22  43 CALM      30.11R
MINOT          FAIR      44  26  49 W8        30.09R
MINOT AFB      CLEAR     35  25  66 W8        30.08R
$$

NDZ018>021-031>035-040>046-040600-
SOUTHWEST NORTH DAKOTA

CITY           SKY/WX    TMP DP  RH WIND       PRES   REMARKS
BISMARCK       PTCLDY    49  24  37 CALM      30.10R
DICKINSON      PTCLDY    45  26  47 NE7       30.09R
GARRISON         N/A     41  28  60 N5        30.09R
HETTINGER ARPT PTCLDY    44  26  49 CALM      30.12R
$$

NDZ004>008-012>016-024-026-027-054-040600-
NORTHEAST NORTH DAKOTA

CITY           SKY/WX    TMP DP  RH WIND       PRES   REMARKS
GRAND FORKS    CLEAR     44  28  53 NW6       30.02R
GRND FRKS AFB  CLEAR     44  26  49 NW5       30.03R
DEVILS LAKE    PTCLDY    45  32  61 NW8       30.06R
$$

NDZ022-023-025-028>030-036>039-047>053-040600-
SOUTHEAST NORTH DAKOTA

CITY           SKY/WX    TMP DP  RH WIND       PRES   REMARKS
FARGO          CLEAR     50  28  42 NW6       30.01R
JAMESTOWN      PTCLDY    46  26  45 NW8       30.05R
$$




USA.gov is the U.S. government's official web portal to all federal, state and local government web resources and services.